Regional Weather Roundup
Issued by NWS State College, PA

Current Version | Previous Version | Text Only | Print | Product List | Glossary On
Versions: 1 2 3 4 5 6 7 8 9 10 11 12 13 14 15 16 17 18 19 20 21 22 23 24 25 26 27 28 29 30 31 32 33 34 35 36 37 38 39 40 41 42 43 44 45 46 47 48 49 50
000
ASUS41 KCTP 192210
RWRCTP

REGIONAL WEATHER ROUNDUP
NATIONAL WEATHER SERVICE STATE COLLEGE PA
500 PM EST MON FEB 19 2018

Note: "fair" indicates few or no clouds below 12,000 feet with no
significant weather and/or obstructions to visibility.

* = STATION THAT DOES NOT REPORT PRECIPITATION /E.G. RAIN...SNOW...ETC/
    THUNDER OR FOG.

PAZ002>004-007>009-013>016-020>023-029>032-192300-
WESTERN PENNSYLVANIA

CITY           SKY/WX    TMP DP  RH WIND       PRES   REMARKS
ERIE           LGT RAIN  57  53  86 S18G30    30.02S FOG
MEADVILLE      RAIN      52  52 100 S8        30.07F FOG
FRANKLIN*      RAIN      50  49  96 S8        30.12S FOG
NEW CASTLE     LGT RAIN  55  55 100 SE3       30.10F
BEAVER COUNTY  DRIZZLE   55  54  94 CALM      30.11F
BUTLER*        CLOUDY    55  54  96 SE3       30.13S
PITTSBURGH INT LGT RAIN  63  56  78 S6        30.11F
PITTSBURGH     CLOUDY    62  55  77 CALM      30.13R
INDIANA*       CLOUDY    52  52 100 SE7       30.19R
LATROBE        PTCLDY    59  59 100 CALM      30.15R
WASHINGTON CO* NOT AVBL
$$

PAZ004>006-010>012-017>019-024>028-033>037-041-042-045-046-049>053-192300-
CENTRAL PENNSYLVANIA

CITY           SKY/WX    TMP DP  RH WIND       PRES   REMARKS
BRADFORD       LGT RAIN  46  46 100 S7        30.13R FOG
DUBOIS         LGT RAIN  43  41  93 SE5       30.16R VSB<1/4
CLEARFIELD     LGT RAIN  39  38  96 NE5       30.19S
JOHNSTOWN      CLOUDY    47  44  90 S6        30.17S
ALTOONA        MOCLDY    40  39  97 W3        30.23S FOG
STATE COLLEGE  CLOUDY    39  39 100 W7        30.23S
WILLIAMSPORT   CLOUDY    40  38  93 E8        30.27S
SELINSGROVE    CLOUDY    40  38  93 VRB3      30.29S FOG
FT INDIANTOWN  FOG       39  39 100 CALM      30.32S VSB 5/8
CAPITAL CITY   CLOUDY    44  43  96 E7        30.31S FOG
HARRISBURG     CLOUDY    42  41  96 E6        30.31F
YORK           CLOUDY    46  45  96 S8        30.30S
$$

PAZ038>040-043-044-047-048-054-055-060>062-067>071-192300-
EASTERN PENNSYLVANIA

CITY           SKY/WX    TMP DP  RH WIND       PRES   REMARKS
SCRANTON       LGT RAIN  41  38  89 SW9       30.27F
MOUNT POCONO   LGT RAIN  35  35 100 S9        30.27S
ALLENTOWN      LGT RAIN  41  37  86 CALM      30.35F FOG
QUAKERTOWN*    FOG       39  39 100 CALM      30.35F VSB 0
READING        CLOUDY    40  40 100 CALM      30.34S FOG
LANCASTER      FOG       41  41 100 SE5       30.32F VSB 3/4
COATESVILLE    FOG       41 N/A N/A VRB6      30.34F VSB 1/2
POTTSTOWN      LGT RAIN  41  41 100 CALM      30.36F VSB 3/4
BLUE BELL      CLOUDY    43  43 100 CALM      30.36F
DOYLESTOWN     LGT RAIN  43  42  97 S3        30.34F FOG
WILLOW GROVE   NOT AVBL
NORTH PHILA    CLOUDY    50  45  83 S3        30.37F
PHILADELPHIA   CLOUDY    48  43  82 S7        30.36F
$$




USA.gov is the U.S. government's official web portal to all federal, state and local government web resources and services.